Location: Baggett Branch
(32.6074°N, 97.0167°W)
Time: 11:23:24
(UTC+00:00)

Cosmos 1674 Rocket - Pass Details

Date: 10 February 2026
Orbit: 596 x 622 km, 82.5° (Epoch: 8 March)

Event Time Altitude Azimuth Distance (km) Brightness Sun altitude
Rises 12:06:27 0° 352° (N) 2,902 6.8 -15.1°
Reaches altitude 10° 12:08:42 10° 351° (N) 1,990 6.0 -14.6°
Maximum altitude 12:13:06 79° 266° (W) 632 3.4 -13.7°
Drops below altitude 10° 12:17:27 10° 179° (S) 1,965 6.3 -12.8°
Sets 12:19:39 0° 178° (S) 2,861 7.1 -12.3°
